Weather History for Big Piney, WY

Change the Weather History Date:

Wednesday, January 30, 2013

  Actual Average Record
Temperature  
Mean Temperature 16 °F 11 °F  
Max Temperature 33 °F 26 °F 42 °F (2003)
Min Temperature -1 °F -2 °F -40 °F (1979)
Degree Days  
Heating Degree Days 49 54  
Month to date heating degree days 1712 1620  
Since 1 July heating degree days 5434 6059  
Cooling Degree Days 0 0  
Month to date cooling degree days 0 0  
Year to date cooling degree days 0 0  
Moisture  
Dew Point 13 °F    
Average Humidity 70    
Maximum Humidity 86    
Minimum Humidity 54    
Precipitation  
Precipitation 0.00 in 0.01 in 0.08 in (1981)
Month to date precipitation 0.07 0.30  
Year to date precipitation 0.07 0.30  
Sea Level Pressure  
Sea Level Pressure 30.06 in    
Wind  
Wind Speed 13 mph (NNW)    
Max Wind Speed 29 mph    
Max Gust Speed 36 mph    
Visibility 10 miles    
Events      
T = Trace of Precipitation, MM = Missing Value Source: NWS Daily Summary

Daily Weather History Graph

Daily Weather History Graph

Search for Another Location

Airport:

Trip Planner

Search our weather history database for the weather conditions in past years. The results will help you decide how hot, cold, wet, or windy it might be!

Date:

Astronomy

Jan. 30, 2013 Rise Set
Actual Time 7:36 AM MST 5:31 PM MST
Civil Twilight 7:06 AM MST 6:01 PM MST
Nautical Twilight 6:32 AM MST 6:35 PM MST
Astronomical Twilight 5:59 AM MST 7:08 PM MST
Moon 9:40 PM MST (1/30) 8:59 AM MST (1/30)
Length of Visible Light 10h 55m
Length of Day
9h 55m
Waning Gibbous, 87% of the Moon is Illuminated
Jan 30
Waning Gibbous
Feb 3
Last Quarter
Feb 10
New
Feb 17
First Quarter
Feb 25
Full

Hourly Weather History & Observations

Time (MST) Temp. Windchill Dew Point Humidity Pressure Visibility Wind Dir Wind Speed Gust Speed Precip Events Conditions
12:53 AM 1.9 °F - -4.0 °F 76% 30.15 in 10.0 mi Calm Calm - N/A   Clear
1:53 AM 3.0 °F -4.4 °F -0.0 °F 87% 30.12 in 10.0 mi South 3.5 mph - N/A   Overcast
2:53 AM 3.9 °F -3.4 °F -0.0 °F 84% 30.12 in 10.0 mi ESE 3.5 mph - N/A   Overcast
3:53 AM 12.9 °F 0.7 °F 6.1 °F 74% 30.06 in 10.0 mi NNW 9.2 mph 18.4 mph N/A   Overcast
4:53 AM 19.0 °F 9.0 °F 10.9 °F 71% 30.04 in 10.0 mi North 8.1 mph - N/A   Overcast
5:53 AM 19.0 °F 10.0 °F 9.0 °F 65% 30.06 in 10.0 mi NNW 6.9 mph - N/A   Mostly Cloudy
6:53 AM 18.0 °F 6.9 °F 10.0 °F 71% 30.08 in 10.0 mi NE 9.2 mph - N/A   Mostly Cloudy
7:53 AM 19.9 °F 7.9 °F 12.9 °F 74% 30.11 in 10.0 mi NNE 11.5 mph - N/A   Overcast
8:53 AM 21.9 °F 11.7 °F 15.1 °F 75% 30.08 in 10.0 mi North 9.2 mph - N/A   Overcast
9:53 AM 27.0 °F 13.9 °F 16.0 °F 63% 30.08 in 10.0 mi NW 18.4 mph 25.3 mph N/A   Clear
10:53 AM 28.9 °F 15.8 °F 18.0 °F 64% 30.07 in 10.0 mi NW 20.7 mph - N/A   Partly Cloudy
11:53 AM 30.9 °F 17.2 °F 19.0 °F 61% 30.06 in 10.0 mi NW 25.3 mph 32.2 mph N/A   Clear
12:53 PM 32.0 °F 20.5 °F 18.0 °F 56% 30.04 in 10.0 mi NW 18.4 mph 28.8 mph N/A   Clear
1:53 PM 32.0 °F 19.8 °F 18.0 °F 56% 30.02 in 10.0 mi NW 20.7 mph 26.5 mph N/A   Clear
2:53 PM 32.0 °F 18.9 °F 18.0 °F 56% 30.03 in 10.0 mi NW 24.2 mph 29.9 mph N/A   Partly Cloudy
3:53 PM 30.0 °F 17.5 °F 18.0 °F 61% 30.00 in 10.0 mi NW 19.6 mph 25.3 mph N/A   Scattered Clouds
4:53 PM 28.9 °F 16.9 °F 18.0 °F 64% 30.00 in 10.0 mi NNW 17.3 mph 27.6 mph N/A   Clear
5:53 PM 26.1 °F 13.1 °F 17.1 °F 69% 30.02 in 10.0 mi NNW 17.3 mph - N/A   Clear
6:53 PM 24.1 °F 12.5 °F 17.1 °F 75% 30.05 in 10.0 mi NNW 12.7 mph - N/A   Clear
7:53 PM 19.9 °F 10.1 °F 14.0 °F 78% 30.07 in 10.0 mi NE 8.1 mph - N/A   Clear
8:53 PM 17.1 °F 7.6 °F 14.0 °F 88% 30.07 in 10.0 mi NNW 6.9 mph - N/A   Partly Cloudy
9:53 PM 19.9 °F 9.3 °F 15.1 °F 81% 30.03 in 10.0 mi NW 9.2 mph - N/A   Scattered Clouds
10:53 PM 21.0 °F 8.6 °F 15.1 °F 78% 30.04 in 10.0 mi North 12.7 mph - N/A   Clear
11:53 PM 19.9 °F 11.1 °F 15.1 °F 81% 30.05 in 10.0 mi NW 6.9 mph - N/A   Clear